Home   Weather   Clearwater   Past weeks
Flag for USA

Past Weather in Clearwater, Florida, USA — Yesterday and Last 2 Weeks

Now
80 °F

Mostly cloudy.


Feels Like: 84 °F
Forecast: 75 / 64 °F
Wind: 18 mph from Southwest

Location: St. Petersburg / Clearwater International Airport

Current Time: Mar 31, 2020 at 10:52:37 pm

Latest Report: Mar 31, 2020 at 9:53 pm


Visibility: 10 mi

Pressure: 29.76 "Hg

Humidity: 76%

Dew Point: 72 °F

Location of ClearwaterLocation

Past Weather in Clearwater — Graph

°F

Clearwater Temperature Yesterday

Maximum temperature yesterday: 88 °F (at 3:53 pm)
Minimum temperature yesterday: 70 °F (at 4:53 am)
Average temperature yesterday: 78 °F

High & Low Weather Summary for the Past Weeks

 TemperatureHumidityPressure
High90 °F (Mar 27, 3:53 pm)93% (Mar 24, 4:00 am)30.33 "Hg (Mar 24, 4:00 am)
Low67 °F (Mar 28, 6:53 am)39% (Mar 18, 4:53 pm)29.76 "Hg (Mar 31, 8:53 pm)
Average77 °F71%30.11 "Hg
* Reported Mar 16 8:53 pm — Mar 31 8:53 pm, Clearwater. Weather by CustomWeather, © 2020

Note: Actual official high and low records may vary slightly from our data, if they occured in-between our weather recording intervals... More about our weather records

Clearwater Weather History for the Previous 24 Hours

Scroll right to see more
 ConditionsComfort  
Time TempWeatherWind HumidityBarometerVisibility
8:53 pm
Tue, Mar 31
80 °FMostly cloudy.21 mph76%29.76 "Hg10 mi
7:53 pm80 °FPartly cloudy.20 mph76%29.77 "Hg10 mi
7:26 pm81 °FScattered clouds.18 mph74%29.77 "Hg10 mi
6:53 pm81 °FPartly sunny.20 mph74%29.78 "Hg10 mi
5:53 pm82 °FPartly sunny.18 mph74%29.77 "Hg10 mi
4:53 pm82 °FMostly cloudy.21 mph72%29.79 "Hg10 mi
4:15 pm85 °FBroken clouds.21 mph63%29.80 "Hg10 mi
4:00 pm85 °FScattered clouds.22 mph61%29.80 "Hg10 mi
3:40 pm85 °FPartly sunny.20 mph63%29.80 "Hg10 mi
3:18 pm85 °FScattered clouds.20 mph61%29.81 "Hg10 mi
2:53 pm85 °FPartly sunny.23 mph63%29.83 "Hg10 mi
1:53 pm84 °FPartly sunny.20 mph63%29.85 "Hg10 mi
12:53 pm84 °FPartly sunny.18 mph63%29.89 "Hg10 mi
11:53 am82 °FPartly sunny.14 mph67%29.91 "Hg10 mi
11:16 am81 °FBroken clouds.14 mph67%29.92 "Hg10 mi
10:53 am82 °FBroken clouds.17 mph67%29.92 "Hg10 mi
9:53 am79 °FBroken clouds.14 mph72%29.91 "Hg10 mi
9:37 am79 °FBroken clouds.13 mph72%29.91 "Hg10 mi
9:10 am78 °FBroken clouds.12 mph74%29.91 "Hg10 mi
8:53 am77 °FScattered clouds.13 mph79%29.91 "Hg10 mi
7:53 am72 °FSunny.7 mph84%29.92 "Hg10 mi
6:53 am73 °FClear.3 mph84%29.91 "Hg10 mi
5:53 am73 °FClear.6 mph84%29.91 "Hg10 mi
4:53 am74 °FClear.7 mph82%29.91 "Hg10 mi
3:53 am75 °FClear.6 mph79%29.94 "Hg10 mi
2:53 am75 °FPassing clouds.6 mph82%29.96 "Hg10 mi
1:53 am75 °FPassing clouds.5 mph82%29.97 "Hg10 mi
12:53 am73 °FClear.5 mph84%29.98 "Hg10 mi
11:53 pm
Mon, Mar 30
76 °FClear.No wind80%30.00 "Hg10 mi
10:53 pm76 °FClear.7 mph77%30.01 "Hg10 mi
Weather by CustomWeather, © 2020

See weather overview

Advertising